WB9ZLM-8 Weather Reports


time (UTC)temp
F
wind
direction
speed
knots
gust
knots
rain 1hr
in
rain 24hr
in
rain mn
in
humidity
%
barometer
mb
20260906131701 71 60 1.7 4.3 0.00 0.00 0.00 91 1021.2
20260906131600 71 60 1.7 4.3 0.00 0.00 0.00 91 1021.2
20260906130201 71 50 0.0 4.3 0.00 0.00 0.00 91 1021.2
20260906130100 71 50 0.0 4.3 0.00 0.00 0.00 91 1021.2
20260906124701 71 70 0.0 4.3 0.00 0.00 0.00 91 1021.1
20260906124600 71 70 0.0 4.3 0.00 0.00 0.00 91 1021.1
20260906123201 71 70 0.0 4.3 0.00 0.00 0.00 91 1020.8
20260906123100 71 70 0.0 4.3 0.00 0.00 0.00 91 1020.8
20260906121701 71 60 0.0 4.3 0.00 0.00 0.00 91 1020.4
20260906121600 71 60 0.0 4.3 0.00 0.00 0.00 91 1020.4
20260906120201 71 60 0.0 4.3 0.00 0.00 0.00 90 1020.2
20260906120100 71 60 0.0 4.3 0.00 0.00 0.00 90 1020.2
20260906114701 71 60 0.0 4.3 0.00 0.00 0.00 90 1019.9
20260906114600 71 60 0.0 4.3 0.00 0.00 0.00 90 1019.9
20260906113201 71 60 0.0 4.3 0.00 0.00 0.00 90 1019.6
20260906113100 71 60 0.0 4.3 0.00 0.00 0.00 90 1019.6
20260906111701 71 60 0.0 4.3 0.00 0.00 0.00 90 1019.4
20260906111600 71 60 0.0 4.3 0.00 0.00 0.00 90 1019.4
20260906110201 71 70 0.0 4.3 0.00 0.00 0.00 91 1019.3
20260906110100 71 70 0.0 4.3 0.00 0.00 0.00 91 1019.3
20260906104701 71 60 0.0 4.3 0.00 0.00 0.00 90 1019.3
20260906104600 71 60 0.0 4.3 0.00 0.00 0.00 90 1019.3
20260906103201 71 60 0.0 4.3 0.00 0.00 0.00 90 1019.2
20260906103100 71 60 0.0 4.3 0.00 0.00 0.00 90 1019.2
20260906101701 71 60 0.0 4.3 0.00 0.00 0.00 89 1018.9
20260906101600 71 60 0.0 4.3 0.00 0.00 0.00 89 1018.9
20260906100201 72 50 0.0 4.3 0.00 0.00 0.00 89 1018.8
20260906100100 72 50 0.0 4.3 0.00 0.00 0.00 89 1018.8
20260906094701 71 60 0.0 4.3 0.00 0.00 0.00 89 1018.9
20260906094600 71 60 0.0 4.3 0.00 0.00 0.00 89 1018.9
20260906093201 72 60 0.9 4.3 0.00 0.00 0.00 88 1018.9
20260906093100 72 60 0.9 4.3 0.00 0.00 0.00 88 1018.9
20260906091701 72 70 0.0 4.3 0.00 0.00 0.00 87 1018.9
20260906091600 72 70 0.0 4.3 0.00 0.00 0.00 87 1018.9
20260906090201 72 70 0.0 4.3 0.00 0.00 0.00 87 1018.9
20260906090100 72 70 0.0 4.3 0.00 0.00 0.00 87 1018.9
20260906084701 72 60 0.0 4.3 0.00 0.00 0.00 87 1018.8
20260906084600 72 60 0.0 4.3 0.00 0.00 0.00 87 1018.8
20260906083201 72 50 0.0 4.3 0.00 0.00 0.00 87 1018.9
20260906083100 72 50 0.0 4.3 0.00 0.00 0.00 87 1018.9
20260906081701 72 40 0.0 4.3 0.00 0.00 0.00 87 1019.1
20260906081600 72 40 0.0 4.3 0.00 0.00 0.00 87 1019.1
20260906080201 72 50 0.0 4.3 0.00 0.00 0.00 87 1019.2
20260906080100 72 50 0.0 4.3 0.00 0.00 0.00 87 1019.2
20260906074701 72 50 0.0 4.3 0.00 0.00 0.00 86 1019.2
20260906074600 72 50 0.0 4.3 0.00 0.00 0.00 86 1019.2
20260906073201 72 50 0.0 4.3 0.00 0.00 0.00 86 1019.3
20260906073100 72 50 0.0 4.3 0.00 0.00 0.00 86 1019.3
20260906071701 73 60 0.0 4.3 0.00 0.00 0.00 86 1019.2
20260906071600 73 60 0.0 4.3 0.00 0.00 0.00 86 1019.2
20260906070201 73 50 0.0 4.3 0.00 0.00 0.00 86 1019.4
20260906070100 73 50 0.0 4.3 0.00 0.00 0.00 86 1019.4
20260906064701 73 60 0.0 4.3 0.00 0.00 0.00 85 1019.3
20260906064600 73 60 0.0 4.3 0.00 0.00 0.00 85 1019.3
20260906063201 73 60 0.0 4.3 0.00 0.00 0.00 85 1019.4
20260906063100 73 60 0.0 4.3 0.00 0.00 0.00 85 1019.4
20260906061701 73 70 0.0 4.3 0.00 0.00 0.00 85 1019.5
20260906061600 73 70 0.0 4.3 0.00 0.00 0.00 85 1019.5
20260906060201 73 70 0.0 4.3 0.00 0.00 0.00 85 1019.5
20260906060100 73 70 0.0 4.3 0.00 0.00 0.00 85 1019.5
20260906054701 73 60 0.0 4.3 0.00 0.00 0.00 85 1019.3
20260906054600 73 60 0.0 4.3 0.00 0.00 0.00 85 1019.3
20260906053201 74 60 3.5 4.3 0.00 0.00 0.00 86 1019.2
20260906053100 74 60 3.5 4.3 0.00 0.00 0.00 86 1019.2
20260906051701 74 80 0.0 4.3 0.00 0.00 0.00 85 1019.1
20260906051600 74 80 0.0 4.3 0.00 0.00 0.00 85 1019.1
20260906050201 74 70 0.0 4.3 0.00 0.00 0.00 85 1019.0
20260906050100 74 70 0.0 4.3 0.00 0.00 0.00 85 1019.0
20260906044701 75 70 0.0 4.3 0.00 0.00 0.00 84 1018.8
20260906044600 75 70 0.0 4.3 0.00 0.00 0.00 84 1018.8
20260906043201 75 70 0.0 4.3 0.00 0.00 0.00 83 1018.2
20260906043100 75 70 0.0 4.3 0.00 0.00 0.00 83 1018.2
20260906041701 76 70 0.0 4.3 0.00 0.00 0.00 82 1016.1
20260906041600 76 70 0.0 4.3 0.00 0.00 0.00 82 1016.1
20260906040201 76 70 0.0 4.3 0.00 0.00 0.00 82 1016.1
20260906040100 76 70 0.0 4.3 0.00 0.00 0.00 82 1016.1
20260906034701 77 60 0.0 4.3 0.00 0.00 0.00 82 1016.1
20260906034600 77 60 0.0 4.3 0.00 0.00 0.00 82 1016.1
20260906033201 77 60 0.0 4.3 0.00 0.00 0.00 80 1016.1
20260906033100 77 60 0.0 4.3 0.00 0.00 0.00 80 1016.1
20260906031701 77 60 0.0 4.3 0.00 0.00 0.00 80 1016.1
20260906031600 77 60 0.0 4.3 0.00 0.00 0.00 80 1016.1
20260906030201 77 60 0.0 4.3 0.00 0.00 0.00 80 1016.1
20260906030100 77 60 0.0 4.3 0.00 0.00 0.00 80 1016.1
20260906024701 78 60 0.0 4.3 0.00 0.00 0.00 80 1016.1
20260906024600 78 60 0.0 4.3 0.00 0.00 0.00 80 1016.1
20260906023201 78 60 0.0 4.3 0.00 0.00 0.00 79 1016.1
20260906023100 78 60 0.0 4.3 0.00 0.00 0.00 79 1016.1
20260906021701 78 50 0.0 4.3 0.00 0.00 0.00 79 1016.1
20260906021600 78 50 0.0 4.3 0.00 0.00 0.00 79 1016.1
20260906020201 79 50 0.0 4.3 0.00 0.00 0.00 79 1016.1
20260906020100 79 50 0.0 4.3 0.00 0.00 0.00 79 1016.1
20260906014701 79 50 0.0 4.3 0.00 0.00 0.00 78 1016.1
20260906014600 79 50 0.0 4.3 0.00 0.00 0.00 78 1016.1
20260906013201 80 50 0.0 4.3 0.00 0.00 0.00 78 1016.1
20260906013100 80 50 0.0 4.3 0.00 0.00 0.00 78 1016.1
20260906011701 80 40 0.0 4.3 0.00 0.00 0.00 78 1016.1
20260906011600 80 40 0.0 4.3 0.00 0.00 0.00 78 1016.1
20260906010201 80 60 0.0 4.3 0.00 0.00 0.00 77 1016.1
20260906010100 80 60 0.0 4.3 0.00 0.00 0.00 77 1016.1
20260906004701 81 50 6.1 4.3 0.00 0.00 0.00 76 1016.1
20260906004600 81 50 6.1 4.3 0.00 0.00 0.00 76 1016.1
20260906003201 82 50 0.0 4.3 0.00 0.00 0.00 75 1016.1
20260906003100 82 50 0.0 4.3 0.00 0.00 0.00 75 1016.1
20260906001701 83 60 0.0 4.3 0.00 0.00 0.00 73 1016.1
20260906001600 83 60 0.0 4.3 0.00 0.00 0.00 73 1016.1
20260906000201 84 50 0.9 4.3 0.00 0.00 0.00 73 1016.1
20260906000100 84 50 0.9 4.3 0.00 0.00 0.00 73 1016.1
20260905234701 84 40 0.0 4.3 0.00 0.00 0.00 73 1016.1
20260905234600 84 40 0.0 4.3 0.00 0.00 0.00 73 1016.1
20260905233201 85 50 4.3 4.3 0.00 0.00 0.00 73 1016.1
20260905233100 85 50 4.3 4.3 0.00 0.00 0.00 73 1016.1
20260905231701 85 30 0.0 4.3 0.00 0.00 0.00 74 1016.1
20260905231600 85 30 0.0 4.3 0.00 0.00 0.00 74 1016.1
20260905230201 86 20 0.9 4.3 0.00 0.00 0.00 73 1016.1
20260905230100 86 20 0.9 4.3 0.00 0.00 0.00 73 1016.1
20260905224701 86 30 0.0 4.3 0.00 0.00 0.00 72 1016.1
20260905224600 86 30 0.0 4.3 0.00 0.00 0.00 72 1016.1
20260905220201 87 10 0.0 4.3 0.00 0.00 0.00 68 1016.1
20260905220100 87 10 0.0 4.3 0.00 0.00 0.00 68 1016.1
20260905203201 88 360 0.0 4.3 0.00 0.00 0.00 66 1016.1
20260905203100 88 360 0.0 4.3 0.00 0.00 0.00 66 1016.1
20260905201701 88 340 0.0 4.3 0.00 0.00 0.00 66 1016.1
20260905201600 88 340 0.0 4.3 0.00 0.00 0.00 66 1016.1
20260905200201 88 330 0.0 4.3 0.00 0.00 0.00 67 1016.2
20260905200100 88 330 0.0 4.3 0.00 0.00 0.00 67 1016.2
20260905194701 87 360 0.0 4.3 0.00 0.00 0.00 71 1016.2
20260905194600 87 360 0.0 4.3 0.00 0.00 0.00 71 1016.2
20260905193201 87 340 0.0 4.3 0.00 0.00 0.00 71 1016.3
20260905193100 87 340 0.0 4.3 0.00 0.00 0.00 71 1016.3
20260905191701 87 0 1.7 4.3 0.00 0.00 0.00 71 1016.3
20260905191600 87 0 1.7 4.3 0.00 0.00 0.00 71 1016.3
20260905190201 87 360 2.6 4.3 0.00 0.00 0.00 69 1016.4
20260905190100 87 360 2.6 4.3 0.00 0.00 0.00 69 1016.4
20260905184701 87 340 1.7 4.3 0.00 0.00 0.00 72 1016.6
20260905184600 87 340 1.7 4.3 0.00 0.00 0.00 72 1016.6
20260905183201 86 10 0.0 4.3 0.00 0.00 0.00 72 1016.6
20260905183100 86 10 0.0 4.3 0.00 0.00 0.00 72 1016.6
20260905181701 86 30 0.9 4.3 0.00 0.00 0.00 72 1016.8
20260905181600 86 30 0.9 4.3 0.00 0.00 0.00 72 1016.8
20260905180201 86 330 4.3 4.3 0.00 0.00 0.00 73 1016.8
20260905180100 86 330 4.3 4.3 0.00 0.00 0.00 73 1016.8
20260905174701 85 340 0.0 4.3 0.00 0.00 0.00 75 1016.9
20260905174600 85 340 0.0 4.3 0.00 0.00 0.00 75 1016.9
20260905173201 85 340 3.5 4.3 0.00 0.00 0.00 77 1017.0
20260905173100 85 340 3.5 4.3 0.00 0.00 0.00 77 1017.0
20260905171701 85 80 0.0 4.3 0.00 0.00 0.00 76 1017.1
20260905171600 85 80 0.0 4.3 0.00 0.00 0.00 76 1017.1
20260905170201 84 10 4.3 4.3 0.00 0.00 0.00 76 1017.2
20260905170100 84 10 4.3 4.3 0.00 0.00 0.00 76 1017.2
20260905164701 84 40 0.0 4.3 0.00 0.00 0.00 79 1017.2
20260905164600 84 40 0.0 4.3 0.00 0.00 0.00 79 1017.2
20260905163206 83 10 4.3 4.3 0.00 0.00 0.00 79 1017.3
20260905163100 83 10 4.3 4.3 0.00 0.00 0.00 79 1017.3
20260905161701 83 340 3.5 4.3 0.00 0.00 0.00 80 1017.2
20260905161600 83 340 3.5 4.3 0.00 0.00 0.00 80 1017.2
20260905160201 82 340 0.0 4.3 0.00 0.00 0.00 83 1017.2
20260905160100 82 340 0.0 4.3 0.00 0.00 0.00 83 1017.2
20260905154701 82 330 0.0 4.3 0.00 0.00 0.00 84 1017.1
20260905154600 82 330 0.0 4.3 0.00 0.00 0.00 84 1017.1
20260905153201 82 20 1.7 4.3 0.00 0.00 0.00 83 1016.9
20260905153100 82 20 1.7 4.3 0.00 0.00 0.00 83 1016.9
20260905151701 81 330 0.0 4.3 0.00 0.00 0.00 83 1016.9
20260905151600 81 330 0.0 4.3 0.00 0.00 0.00 83 1016.9
20260905150201 80 330 2.6 4.3 0.00 0.00 0.00 85 1016.8
20260905150100 80 330 2.6 4.3 0.00 0.00 0.00 85 1016.8
20260905144701 80 330 0.0 4.3 0.00 0.00 0.00 84 1016.8
20260905144600 80 330 0.0 4.3 0.00 0.00 0.00 84 1016.8
20260905143201 79 340 0.0 4.3 0.00 0.00 0.00 86 1016.6
20260905143100 79 340 0.0 4.3 0.00 0.00 0.00 86 1016.6
20260905141701 78 0 0.0 4.3 0.00 0.00 0.00 89 1016.6
20260905141600 78 0 0.0 4.3 0.00 0.00 0.00 89 1016.6
20260905140201 77 260 0.0 4.3 0.00 0.00 0.00 89 1016.5
20260905140100 77 260 0.0 4.3 0.00 0.00 0.00 89 1016.5
20260905134701 77 280 2.6 4.3 0.00 0.00 0.00 90 1016.4
20260905134600 77 280 2.6 4.3 0.00 0.00 0.00 90 1016.4
20260905133201 77 280 0.0 4.3 0.00 0.00 0.00 90 1016.3
20260905133100 77 280 0.0 4.3 0.00 0.00 0.00 90 1016.3